GFSFLT2_850_dewp_174.txt.gz
Dewpoint
13 13 13 13 12 10 7 3 -3 -9 -12 -13 -14 -15 -15 -15 -15 -15 -15 -15 -14 -14 -14 -11 -6 3 9 11 11 11 11 13
11 10 9 10 8 4 -6 -11 -12 -13 -13 -13 -14 -14 -13 -14 -13 -13 -13 -13 -13 -14 -14 -14 -14 -13 -13 -11 -5 3 11 12
10 9 6 6 -0 -7 -11 -12 -13 -13 -13 -13 -13 -13 -12 -12 -13 -13 -13 -13 -12 -13 -13 -13 -13 -13 -13 -13 -13 -5 6 6
6 4 0 -5 -8 -10 -11 -12 -12 -12 -12 -12 -12 -12 -12 -12 -12 -12 -12 -12 -12 -11 -11 -10 -11 -11 -12 -13 -12 -11 -13 -8
3 -3 -6 -7 -8 -9 -10 -10 -11 -11 -11 -12 -12 -12 -11 -11 -11 -11 -10 -10 -10 -10 -10 -10 -10 -10 -10 -10 -11 -12 -11 -8
-5 -7 -8 -8 -9 -9 -9 -10 -10 -10 -10 -10 -10 -10 -10 -10 -10 -10 -10 -11 -12 -13 -13 -13 -12 -11 -11 -10 -10 -10 -10 -10
-6 -7 -7 -8 -8 -8 -9 -9 -9 -9 -10 -10 -9 -9 -9 -10 -12 -14 -16 -17 -17 -17 -16 -15 -15 -14 -13 -11 -11 -10 -10 -10
-5 -6 -6 -7 -7 -8 -8 -8 -8 -8 -8 -9 -9 -10 -13 -16 -17 -17 -17 -17 -16 -15 -14 -13 -12 -11 -11 -11 -11 -10 -9 -8
-5 -6 -7 -7 -8 -8 -8 -8 -8 -8 -8 -9 -12 -16 -18 -18 -16 -15 -15 -15 -15 -13 -13 -11 -9 -8 -8 -8 -8 -6 -5 -6
-5 -6 -7 -7 -7 -7 -7 -7 -8 -8 -10 -15 -18 -18 -17 -16 -16 -16 -16 -15 -15 -14 -13 -12 -10 -7 -8 -7 -4 -2 -0 -1
-5 -6 -6 -6 -7 -7 -8 -8 -9 -11 -17 -19 -20 -19 -19 -18 -17 -17 -17 -17 -16 -15 -12 -11 -8 -8 -8 -4 -1 -0 1 2
-5 -5 -5 -6 -7 -8 -8 -9 -12 -18 -22 -23 -23 -23 -22 -21 -20 -19 -17 -18 -17 -17 -16 -10 -5 -7 -7 -2 -0 2 3 2
-5 -5 -6 -7 -7 -7 -8 -11 -18 -23 -25 -26 -26 -27 -29 -29 -28 -26 -23 -21 -20 -21 -20 -10 -4 -7 -4 -3 -0 2 3 1
-4 -5 -6 -8 -8 -9 -11 -16 -22 -26 -27 -28 -29 -30 -30 -30 -30 -31 -30 -27 -23 -24 -20 -9 -5 -3 -3 -2 -1 0 -1 1
-4 -5 -7 -9 -10 -12 -15 -20 -24 -22 -28 -30 -31 -31 -31 -31 -32 -33 -32 -28 -28 -26 -17 -9 -6 -4 -3 -3 -2 -2 -3 -0
-4 -5 -8 -10 -13 -15 -18 -12 -11 -29 -30 -31 -31 -31 -32 -33 -34 -33 -33 -33 -31 -24 -17 -11 -11 -4 -4 -4 -4 -4 -4 -3
-4 -5 -8 -12 -15 -19 -20 -24 -29 -31 -31 -31 -31 -32 -34 -34 -34 -35 -35 -36 -34 -27 -21 -17 -14 -7 -5 -5 -4 -3 -3 -4
-4 -5 -7 -10 -14 -17 -22 -28 -31 -30 -30 -25 -30 -33 -34 -35 -35 -35 -36 -36 -36 -32 -24 -17 -17 -10 -6 -5 -6 -6 -6 -5
-3 -4 -6 -9 -14 -21 -28 -31 -31 -30 -24 -28 -28 -31 -35 -35 -35 -36 -36 -36 -36 -32 -24 -19 -21 -13 -7 -5 -6 -6 -7 -7
-3 -4 -5 -9 -16 -24 -29 -30 -28 -28 -29 -30 -32 -34 -35 -35 -36 -36 -36 -36 -35 -30 -26 -25 -16 -10 -11 -8 -6 -5 -5 -6

GFSFLT2_850_dewp_180.txt.gz
Dewpoint
13 12 12 13 13 13 13 12 11 8 6 3 -1 -9 -13 -14 -14 -14 -14 -13 -14 -14 -14 -14 -14 -14 -14 -13 -13 -14 -15 -14
13 13 13 13 13 12 10 9 8 8 -10 -12 -12 -13 -13 -13 -13 -13 -13 -13 -13 -14 -14 -14 -14 -13 -13 -13 -13 -12 -12 -12
12 12 12 11 11 10 3 -4 -9 -11 -12 -11 -11 -12 -12 -13 -12 -12 -12 -13 -13 -13 -13 -12 -13 -12 -11 -11 -11 -6 -2 -1
10 10 9 8 5 2 -4 -8 -9 -11 -11 -9 -10 -10 -10 -10 -11 -11 -12 -12 -12 -12 -12 -12 -13 -13 -13 -13 -11 -10 -7 -6
8 8 6 3 3 2 3 2 -4 -9 -10 -10 -10 -10 -10 -9 -8 -9 -11 -13 -14 -16 -16 -18 -19 -19 -19 -18 -17 -16 -13 -8
7 5 3 3 2 3 2 -1 -4 -7 -10 -10 -10 -10 -9 -9 -10 -12 -14 -17 -19 -20 -20 -20 -20 -18 -17 -17 -16 -14 -14 -12
4 3 1 1 2 2 -1 -3 -6 -8 -10 -10 -9 -9 -10 -12 -14 -15 -18 -20 -21 -21 -20 -21 -19 -17 -14 -14 -14 -11 -8 -6
4 3 -3 -2 -1 -3 -5 -5 -6 -7 -9 -9 -10 -12 -13 -14 -15 -18 -20 -21 -21 -20 -21 -20 -19 -15 -14 -14 -11 -7 -3 -0
3 1 -2 -2 -4 -3 -3 -3 -4 -7 -9 -11 -14 -16 -14 -13 -18 -20 -21 -20 -20 -21 -22 -21 -19 -17 -17 -14 -8 -1 0 1
1 -1 -4 -3 -3 -2 -3 -4 -4 -5 -9 -15 -17 -18 -18 -16 -20 -24 -22 -19 -23 -25 -25 -23 -19 -17 -17 -10 -3 1 3 3
2 0 -2 -3 -4 -4 -5 -3 -4 -6 -10 -16 -19 -21 -22 -20 -24 -26 -23 -22 -25 -27 -26 -22 -18 -19 -18 -10 0 3 3 -1
2 -0 -4 -4 -4 -4 -4 -3 -4 -8 -15 -21 -23 -24 -25 -26 -27 -28 -25 -23 -26 -27 -25 -16 -9 -18 -18 -6 1 1 1 2
2 0 -2 -3 -1 -1 -1 -2 -6 -14 -21 -23 -23 -26 -28 -29 -28 -26 -27 -22 -24 -26 -24 -16 -7 -19 -17 -5 0 1 0 1
2 1 -1 0 -0 -1 -2 -3 -4 -14 -20 -23 -26 -28 -29 -28 -28 -27 -27 -21 -22 -23 -22 -16 -5 -14 -12 -5 -2 2 -2 -0
2 1 1 -0 -1 -2 -4 -10 -14 -10 -9 -16 -27 -28 -28 -27 -28 -28 -27 -23 -21 -19 -20 -18 -7 -9 -7 -6 -3 -2 -3 -1
1 1 -0 -1 -4 -6 -8 -6 -6 -6 -10 -20 -26 -28 -28 -29 -28 -29 -28 -25 -23 -17 -20 -20 -16 -12 -7 -4 -3 -2 -2 -3
0 -0 -1 -4 -3 -4 -5 -6 -6 -13 -20 -25 -26 -26 -29 -29 -29 -29 -29 -28 -25 -21 -20 -22 -21 -17 -12 -8 -4 -2 -3 -4
0 -1 -2 -5 -7 -8 -10 -11 -14 -19 -21 -18 -21 -24 -25 -29 -29 -29 -30 -30 -25 -20 -18 -19 -16 -17 -14 -10 -5 -5 -5 -5
-0 -2 -3 -6 -10 -13 -13 -15 -14 -16 -16 -15 -15 -17 -22 -27 -28 -28 -28 -23 -22 -16 -13 -10 -8 -8 -7 -8 -8 -5 -5 -5
-0 -2 -4 -7 -9 -10 -13 -17 -18 -16 -13 -15 -15 -17 -22 -26 -27 -27 -26 -22 -17 -9 -9 -9 -8 -10 -7 -5 -8 -10 -6 -5

GFSFLT2_850_dewp_186.txt.gz
Dewpoint
13 13 13 13 13 11 11 11 11 11 11 10 9 5 -3 -3 -13 -15 -15 -15 -14 -14 -14 -14 -14 -14 -13 -13 -12 -11 -11 -12
12 13 13 13 12 12 12 12 12 11 10 9 5 -1 -10 -16 -15 -15 -14 -14 -14 -14 -14 -13 -13 -12 -12 -12 -11 -9 -7 -7
13 11 11 12 12 12 12 12 12 11 8 6 2 -10 -12 -15 -14 -14 -13 -13 -13 -13 -13 -13 -13 -13 -13 -14 -13 -13 -10 -7
12 13 12 13 12 12 12 11 11 9 5 -6 -10 -10 -12 -13 -13 -13 -12 -13 -13 -13 -13 -14 -16 -16 -17 -17 -18 -17 -13 -9
11 12 12 12 11 11 10 8 7 4 -6 -9 -8 -9 -11 -12 -11 -12 -13 -12 -13 -15 -16 -19 -20 -20 -20 -20 -19 -17 -14 -10
11 11 10 9 9 10 8 5 0 -6 -8 -8 -8 -9 -9 -10 -12 -12 -12 -14 -16 -18 -20 -21 -21 -21 -21 -21 -18 -12 -10 -7
10 8 6 4 2 1 2 -0 -5 -8 -8 -8 -8 -8 -9 -11 -11 -12 -14 -16 -19 -20 -21 -21 -21 -22 -22 -20 -14 -8 -5 -4
8 5 5 4 4 1 -1 -2 -3 -5 -6 -8 -8 -8 -9 -10 -12 -14 -17 -19 -20 -21 -22 -22 -22 -22 -19 -17 -9 -3 -3 1
7 4 5 4 4 3 2 1 -2 -5 -6 -8 -8 -9 -10 -12 -14 -17 -19 -20 -21 -22 -22 -22 -22 -21 -17 -9 -1 1 2 2
7 5 4 3 3 3 2 0 -3 -5 -7 -8 -9 -11 -11 -14 -17 -19 -20 -20 -22 -22 -22 -23 -23 -20 -13 -3 0 3 3 0
5 5 4 4 3 2 1 -3 -4 -6 -9 -11 -12 -13 -15 -17 -19 -20 -21 -21 -21 -21 -22 -24 -23 -18 -6 -1 3 2 1 -0
6 4 3 2 2 -0 -2 -3 -5 -6 -10 -14 -15 -17 -18 -19 -21 -22 -21 -19 -21 -23 -24 -25 -25 -12 -3 1 3 1 1 0
5 4 2 1 -1 -2 -2 -4 -4 -6 -11 -16 -19 -20 -20 -22 -23 -22 -20 -20 -22 -24 -25 -25 -23 -6 -2 1 2 1 0 -1
4 3 -0 -0 -0 -2 -3 -4 -5 -8 -15 -19 -21 -22 -23 -23 -23 -22 -21 -21 -23 -24 -25 -27 -22 -2 0 0 -0 -2 -2 -2
3 1 -0 -2 -4 -3 -3 -4 -6 -12 -18 -21 -23 -24 -24 -24 -23 -22 -22 -22 -23 -25 -27 -28 -28 -21 -6 -4 -2 -1 -3 -2
2 1 -2 -3 -1 -1 -2 -3 -6 -11 -16 -19 -23 -24 -24 -23 -23 -22 -23 -24 -25 -27 -28 -29 -29 -26 -18 -13 -11 -9 -5 -4
2 0 -1 -1 0 0 -1 -2 -4 -12 -10 -17 -23 -24 -24 -24 -23 -23 -24 -25 -26 -27 -28 -29 -28 -26 -22 -17 -11 -9 -8 -6
2 0 -0 0 0 -0 -1 -2 -6 -9 -8 -17 -22 -23 -23 -23 -23 -23 -25 -26 -26 -27 -27 -26 -27 -26 -22 -16 -12 -12 -12 -9
2 1 0 -0 -1 -2 -3 -4 -6 -6 -7 -18 -19 -20 -21 -22 -22 -24 -26 -27 -26 -26 -25 -24 -23 -22 -23 -20 -18 -18 -16 -12
2 2 1 0 -0 -2 -5 -6 -5 -6 -9 -17 -17 -18 -19 -21 -23 -26 -26 -26 -25 -23 -23 -22 -21 -19 -19 -21 -20 -20 -17 -16

GFSFLT2_850_dewp_192.txt.gz
Dewpoint
10 11 12 13 14 10 9 8 8 8 8 8 9 10 10 10 9 6 -1 -12 -14 -14 -14 -16 -14 -14 -14 -14 -13 -12 -12 -11
12 12 12 11 13 13 11 9 9 9 10 10 11 11 10 9 5 -3 -12 -14 -14 -15 -15 -15 -14 -14 -13 -13 -13 -12 -11 -9
12 12 12 12 12 12 12 11 11 12 12 11 11 11 9 3 -5 -11 -12 -11 -2 5 -14 -14 -13 -13 -13 -13 -14 -14 -13 -11
13 13 12 11 12 12 13 12 12 12 12 11 10 7 0 -5 -7 -8 -10 -11 -13 -14 -14 -13 -13 -14 -15 -17 -17 -17 -15 -12
12 13 12 12 12 12 13 12 12 12 11 10 7 3 -3 -4 -6 -8 -11 -11 -12 -13 -14 -14 -16 -17 -18 -18 -18 -16 -13 -10
11 12 12 12 12 12 12 12 12 11 10 9 4 1 -5 -5 -6 -8 -10 -11 -13 -14 -15 -17 -18 -18 -19 -18 -16 -13 -10 -7
11 11 11 12 12 12 12 12 10 8 6 7 5 2 -2 -5 -6 -8 -10 -12 -14 -16 -17 -18 -18 -19 -18 -14 -12 -9 -7 -5
12 11 12 12 12 12 11 9 7 5 3 3 1 -2 -4 -5 -6 -8 -11 -14 -16 -18 -19 -19 -18 -17 -15 -10 -7 -4 -3 -2
12 12 11 10 10 9 8 7 5 3 2 -1 -2 -4 -5 -5 -7 -10 -13 -16 -18 -19 -19 -19 -18 -15 -11 -5 -3 -2 -1 -2
12 11 10 9 9 8 6 4 2 0 -2 -4 -5 -5 -5 -6 -8 -12 -15 -17 -19 -19 -19 -18 -17 -12 -9 -4 -1 -0 -1 -2
12 11 9 9 7 5 4 3 1 1 -1 -4 -6 -6 -6 -7 -10 -14 -17 -18 -19 -20 -18 -17 -17 -10 -4 -1 1 1 -1 -1
12 11 9 7 7 6 5 4 3 1 -2 -5 -7 -7 -7 -9 -13 -16 -18 -19 -19 -19 -18 -19 -15 -10 -3 0 1 -0 -1 -1
11 11 9 7 6 6 5 3 3 1 -4 -6 -7 -7 -9 -11 -15 -18 -19 -19 -17 -18 -19 -19 -12 -5 -3 -0 -0 -1 -1 -2
11 10 9 7 6 5 4 3 2 -1 -5 -7 -8 -8 -11 -14 -17 -19 -20 -18 -17 -18 -19 -17 -11 -4 -2 -3 -2 -3 -2 -3
11 10 8 7 5 5 4 3 1 -2 -5 -7 -8 -10 -14 -17 -19 -20 -19 -17 -17 -18 -20 -18 -14 -7 -4 -3 -2 -2 -3 -3
10 9 7 6 5 4 4 3 -0 -3 -5 -7 -12 -14 -17 -19 -20 -20 -19 -18 -17 -20 -21 -20 -15 -10 -5 -2 -3 -5 -4 -5
9 8 6 6 5 5 4 2 -2 -4 -5 -9 -15 -19 -19 -20 -20 -20 -19 -17 -18 -20 -22 -25 -24 -16 -9 -7 -3 -6 -7 -7
8 7 6 6 5 4 2 0 -3 -4 -8 -14 -18 -20 -20 -20 -20 -19 -18 -17 -17 -20 -24 -26 -25 -22 -19 -17 -14 -12 -10 -9
7 6 6 5 4 3 1 -0 -2 -5 -8 -15 -19 -20 -20 -20 -20 -19 -17 -16 -19 -24 -25 -25 -25 -25 -24 -21 -18 -15 -15 -12
6 6 5 5 4 2 1 -1 -3 -5 -10 -14 -16 -19 -20 -20 -20 -18 -16 -18 -23 -24 -23 -23 -24 -25 -25 -23 -22 -20 -17 -11

GFSFLT2_850_dewp_198.txt.gz
Dewpoint
13 12 13 13 13 12 12 12 12 12 10 10 10 9 8 7 8 9 9 7 -1 -13 -14 -13 -14 -14 -14 -12 -12 -11 6 6
13 13 12 12 13 13 13 13 13 14 12 12 10 9 9 9 8 10 9 2 -11 -13 -13 -13 -13 -13 -14 -11 -13 -7 5 7
13 13 13 12 13 13 13 13 13 13 13 10 10 11 11 12 11 10 5 -8 -13 -13 -5 -4 -7 -11 -12 -13 -10 5 6 7
13 12 12 12 12 12 13 13 13 13 13 11 11 11 11 11 9 4 -3 -11 -10 -8 -6 -10 -11 -9 -13 -13 3 6 8 7
13 13 12 12 12 12 12 12 12 12 12 11 12 12 11 9 5 -6 -9 -7 -6 -9 -11 -9 2 -5 -7 -3 6 6 7 9
13 13 13 12 12 12 12 12 12 11 11 12 12 11 9 6 -1 -4 -4 -5 -8 -10 -12 -11 -6 -11 -7 -5 4 6 6 8
13 14 13 13 13 13 12 12 11 11 11 12 11 9 5 2 1 -1 -2 -3 -9 -11 -11 -12 -12 -13 -10 -8 -2 5 5 2
13 14 13 12 13 13 12 11 11 11 12 12 11 7 3 5 6 6 2 -4 -8 -7 -9 -11 -7 -12 -11 -7 -4 -2 -1 -1
13 13 13 13 13 12 12 12 11 11 11 12 9 7 5 5 5 3 0 -6 -10 -8 -9 -12 -11 -7 -9 -5 -4 -3 -3 -4
12 13 13 13 13 12 12 11 11 11 11 9 7 5 5 4 1 -3 -5 -9 -10 -10 -10 -7 -4 -1 -2 -0 -3 -3 -4 -5
11 12 13 12 12 12 12 11 11 11 8 7 6 4 3 2 -2 -4 -6 -10 -11 -11 -8 -3 -2 -1 0 0 -2 -1 -3 -4
11 11 12 12 12 12 11 11 10 9 8 6 3 2 -0 -1 -2 -4 -8 -11 -13 -10 -5 -6 -5 -3 -1 -2 -1 -1 -2 -3
11 11 11 12 11 11 11 11 10 8 6 4 2 -1 -2 -2 -2 -5 -9 -10 -11 -12 -9 -4 -4 -5 -5 -2 -2 -2 -2 -2
10 11 11 12 11 11 11 8 8 7 5 2 0 -1 -3 -3 -3 -6 -9 -13 -15 -15 -13 -5 -5 -6 -1 -1 -1 -1 -1 -2
10 10 11 11 11 11 9 6 5 5 4 2 1 -1 -3 -4 -4 -7 -11 -14 -14 -12 -13 -8 -8 -5 0 0 -1 -2 -1 -2
8 8 10 11 10 10 10 6 6 5 4 3 1 -2 -3 -4 -5 -9 -12 -13 -15 -14 -9 -9 -6 -6 -3 -2 -1 -2 -2 -2
9 8 8 10 10 10 10 7 5 4 3 3 1 -2 -3 -4 -7 -11 -13 -16 -16 -12 -10 -8 -5 -1 -2 -4 -3 -3 -2 -4
8 8 8 8 10 10 9 8 5 5 4 3 1 -2 -4 -5 -9 -13 -16 -16 -17 -16 -14 -13 -7 -3 -0 -1 -1 -2 -2 -3
8 8 7 7 9 9 9 8 7 6 5 4 1 -3 -5 -6 -11 -14 -15 -16 -17 -17 -15 -15 -13 -8 -9 -4 -2 -2 -3 -3
7 7 6 6 7 8 7 7 7 6 5 3 2 -3 -6 -8 -12 -15 -16 -17 -18 -18 -18 -18 -18 -16 -17 -14 -9 -10 -9 -3

GFSFLT2_850_dewp_201.txt.gz
Dewpoint
14 11 11 13 13 14 13 13 12 11 11 11 11 11 7 8 8 9 9 9 6 -2 -15 -14 -14 -14 -13 -12 -7 5 6 8
14 14 13 12 13 13 13 13 13 13 12 10 12 13 8 8 8 10 11 9 3 -12 -14 -14 -13 -13 -11 -10 -5 5 7 8
14 14 14 13 12 12 13 13 12 12 13 13 13 13 10 10 11 11 10 3 -9 -13 -13 -12 -12 -12 -10 1 5 6 8 8
14 14 15 14 13 13 13 13 13 12 13 13 13 13 11 11 10 11 9 -6 -11 -11 -8 -5 -8 -10 -6 5 6 8 8 8
15 14 14 14 14 13 13 13 13 13 12 13 13 11 11 11 11 8 -1 -9 -8 -7 -7 -2 4 1 5 6 8 8 6 9
14 14 15 14 13 13 13 13 13 13 12 12 12 11 10 10 9 6 -2 1 -3 -6 -4 1 4 5 6 6 6 8 9 8
14 14 13 14 13 12 12 13 12 13 12 12 12 11 10 9 8 6 -3 -3 -2 -5 -10 -4 -2 6 6 6 6 7 6 8
13 14 14 13 13 12 12 12 12 12 12 11 11 10 10 10 7 3 2 1 -1 -6 -9 -4 5 5 5 6 6 6 5 4
13 13 13 13 13 13 13 13 13 12 11 11 11 11 10 7 3 5 4 2 -1 0 1 5 3 4 4 4 3 4 4 3
13 13 13 13 13 13 13 13 12 11 11 11 11 11 8 2 4 5 5 1 2 4 3 4 2 3 1 2 2 1 -1 1
12 12 13 13 13 13 13 13 12 12 11 12 11 9 6 7 4 2 2 3 3 4 4 3 2 1 1 0 1 1 -0 -0
12 12 12 13 13 13 13 12 12 12 11 11 11 8 6 5 3 2 -1 -1 3 4 4 3 2 1 -1 1 1 0 -0 -2
12 12 12 12 12 13 13 12 11 11 11 11 9 7 7 4 3 1 -2 1 3 3 4 3 -2 -6 -1 1 1 0 0 -1
12 12 11 11 12 12 12 12 11 11 11 9 8 7 4 2 2 1 -2 1 2 3 0 1 1 -3 0 0 0 -0 -0 -1
12 11 11 11 11 12 12 11 9 9 8 7 7 4 3 1 1 1 -2 -1 -2 -1 2 1 0 -5 0 1 0 -0 -0 -0
10 11 11 10 10 11 11 11 9 8 7 6 6 4 2 -0 -0 0 -3 -5 -5 -7 -2 -1 -0 0 2 2 2 1 -1 -1
8 10 11 10 9 10 11 11 9 7 6 6 5 4 1 -0 -1 -1 -3 -7 -9 -7 -4 -2 0 2 2 2 2 -0 -1 -2
3 9 10 9 8 9 10 9 8 7 6 5 4 4 2 0 -1 -2 -5 -8 -7 -6 -3 -4 1 2 1 1 1 -0 -1 -3
6 7 9 9 8 8 8 8 8 7 6 5 4 3 2 -0 -2 -3 -6 -7 -3 -1 -1 2 2 2 1 1 0 -1 -2 -3
4 7 8 8 8 7 7 7 7 7 6 5 4 3 2 -0 -3 -5 -6 -7 -4 -1 -1 -2 -1 2 2 1 0 -1 -2 -3

GFSFLT2_850_dewp_204.txt.gz
Dewpoint
14 14 11 12 11 11 11 11 12 13 13 13 12 12 12 11 9 5 7 9 8 4 -6 -15 -14 -14 -14 -4 6 7 9 10
15 14 12 12 12 13 12 12 11 11 12 12 11 12 12 9 8 8 8 9 8 -0 -14 -14 -14 -13 -11 1 6 7 8 9
14 13 12 13 13 13 13 13 12 12 11 11 12 13 13 12 9 10 10 9 6 -7 -13 -12 -13 -11 -3 5 7 8 8 8
14 14 13 13 13 13 14 14 14 13 13 13 13 13 13 13 10 11 10 9 4 -10 -12 -11 -10 -8 5 7 8 8 8 8
14 14 13 12 13 12 13 14 14 14 12 12 12 12 12 11 11 11 10 9 -5 -12 -10 -5 -6 -2 5 8 8 8 8 7
14 14 13 14 13 13 13 13 13 13 12 12 11 12 12 11 10 10 8 5 -7 -10 -7 -1 -4 -3 6 8 6 5 4 7
14 15 14 15 14 14 13 13 13 13 13 12 12 12 11 11 10 9 6 1 -7 -6 -6 0 1 -1 1 7 8 7 6 7
13 14 15 15 14 14 14 13 13 12 13 13 13 12 11 10 8 8 8 3 -3 -3 -3 -1 4 5 6 7 7 7 8 7
11 13 14 14 14 14 13 13 12 13 13 13 12 11 11 10 10 9 8 2 0 -1 -4 2 4 6 6 7 6 5 2 -0
12 12 12 14 13 14 13 12 12 13 12 13 12 11 10 10 11 9 5 5 2 -2 3 6 5 4 5 5 5 2 1 -3
11 13 12 13 14 13 13 13 12 13 13 12 12 11 10 10 10 5 5 4 1 1 5 5 5 4 3 2 1 1 -1 -2
11 12 12 13 13 13 13 13 13 13 13 12 11 11 10 10 3 3 6 5 2 4 4 5 3 1 0 0 0 -1 -0 -3
8 11 11 12 12 13 13 12 13 13 12 12 11 11 11 10 4 7 3 4 3 4 4 4 3 1 1 1 0 -0 -1 -4
10 11 11 11 12 12 12 12 12 12 12 12 11 11 11 7 5 5 4 2 2 4 4 3 2 0 -0 -1 0 -0 0 -0
11 11 11 11 11 12 12 11 11 11 12 12 11 11 10 7 4 5 3 0 2 3 2 2 1 0 -3 -3 -0 0 -0 -0
9 10 11 11 11 11 11 11 11 11 11 11 11 10 9 7 6 4 2 1 2 2 2 1 -3 -3 -3 2 -1 -1 -1 -0
2 10 11 11 10 10 10 10 10 10 10 9 9 9 7 7 5 3 2 1 1 2 2 1 -4 -4 -5 2 2 1 -2 -1
0 2 9 10 10 10 10 9 9 9 8 8 8 8 7 6 4 3 2 0 -0 1 1 1 -2 -4 -5 -0 1 -0 -1 -4
0 -1 -1 9 10 10 9 9 8 8 8 8 7 6 6 6 4 3 1 0 0 -1 0 0 -1 -3 -2 -0 -1 0 -1 -3
-3 1 3 6 8 8 8 7 8 8 8 7 7 6 7 6 4 3 2 -0 -1 -1 0 -1 -0 1 1 1 0 -0 -1 -1

GFSFLT2_850_dewp_207.txt.gz
Dewpoint
14 13 10 10 10 10 11 12 13 14 14 13 13 13 12 11 10 8 5 7 3 4 -3 -15 -15 -13 5 8 9 9 8 6
13 14 11 11 11 10 11 11 12 13 14 14 13 13 12 11 11 7 8 7 6 4 -8 -15 -14 -11 3 8 9 8 8 8
13 13 14 11 12 11 11 11 12 12 13 14 14 13 12 12 10 8 8 7 7 2 -13 -14 -12 -5 5 6 7 7 8 8
13 13 13 12 12 12 12 12 12 13 13 13 13 12 13 13 11 9 9 8 7 -2 -14 -13 -11 -8 1 6 7 7 7 6
12 14 14 12 12 13 13 13 12 12 12 12 12 12 12 12 13 11 10 9 3 -10 -13 -12 -2 2 3 6 7 8 7 6
12 13 14 13 12 13 13 14 13 13 13 12 12 13 12 12 12 11 10 9 -3 -10 -12 -6 -2 3 1 5 6 7 8 7
9 12 13 14 13 13 14 14 14 14 13 13 13 12 10 11 12 11 10 8 -3 -8 -9 -5 3 4 4 4 6 6 5 6
11 10 11 13 14 13 13 13 14 14 14 14 12 12 11 11 11 11 10 7 -4 -8 -7 -4 0 6 6 6 7 6 5 5
10 11 12 13 14 14 14 13 13 14 13 13 13 12 12 12 11 10 9 3 -4 -6 -2 -0 2 6 6 7 7 7 6 6
11 12 12 12 11 13 14 13 13 13 12 12 13 13 12 12 11 10 9 7 1 -3 -1 1 4 5 6 7 7 7 6 6
11 11 11 10 9 11 11 13 13 13 11 11 13 12 11 11 11 10 9 9 1 0 -1 -1 2 4 6 6 6 5 2 -1
7 10 11 11 12 12 13 13 12 11 11 11 13 12 12 11 11 10 10 7 2 1 0 2 2 4 6 5 5 3 0 -0
8 10 11 11 12 13 13 13 13 12 12 12 12 12 10 11 11 10 10 6 4 2 3 4 5 4 5 3 1 0 1 1
7 10 9 10 10 10 13 12 13 13 12 12 11 12 12 11 11 10 8 4 4 4 5 5 5 4 2 -0 0 0 -0 -1
8 8 8 9 10 10 11 12 12 11 12 11 12 12 11 11 11 10 6 5 6 4 4 4 4 3 -1 -4 0 -0 -0 -0
11 10 10 8 9 10 9 11 11 10 11 11 10 11 11 11 10 10 7 6 4 4 4 4 3 1 -0 -3 -3 -3 -1 0
-1 1 9 11 10 10 9 8 9 10 10 10 10 10 10 10 11 9 8 5 4 4 4 4 3 -0 -2 -1 -2 -2 -4 -2
-3 -1 0 7 11 11 10 9 8 8 9 9 9 9 10 9 9 7 6 4 4 3 3 4 2 0 -3 -1 -1 -2 -3 -5
-10 -10 -6 1 4 8 10 10 10 9 8 8 9 9 9 9 8 6 5 5 3 2 3 3 2 0 -3 -2 1 -0 -3 -3
-13 -11 -10 -9 -0 2 5 9 10 10 8 7 8 8 9 9 8 7 5 5 4 2 4 3 2 1 -1 -2 1 2 -1 -2

GFSFLT2_850_dewp_210.txt.gz
Dewpoint
7 7 8 9 9 10 10 11 13 13 13 13 12 12 12 11 9 7 3 4 5 3 -7 -15 -14 3 7 7 9 9 8 6
9 10 9 9 9 10 11 12 13 13 13 13 13 12 12 12 10 8 5 4 6 3 -12 -14 -12 -3 4 4 8 7 7 4
11 11 11 9 10 10 11 13 13 14 14 14 13 13 13 12 11 10 6 6 6 1 -14 -14 -11 0 3 3 4 6 5 6
11 11 12 11 10 11 11 12 14 14 15 14 14 13 13 12 11 10 6 7 7 -5 -13 -13 -12 -2 4 5 5 5 4 5
8 11 12 13 11 11 11 13 13 14 13 14 14 13 13 12 11 9 7 8 7 -9 -10 -11 -6 -0 4 6 5 4 6 6
8 10 12 13 13 11 13 13 14 14 13 14 14 14 13 12 11 8 9 9 7 -6 -10 -9 -5 1 3 3 5 6 7 7
6 8 9 11 12 12 12 13 13 13 13 14 14 13 13 12 12 11 10 10 7 -6 -9 -8 -2 2 4 5 7 8 8 7
8 8 10 11 12 12 12 13 13 13 13 13 13 13 12 12 12 11 11 10 6 -6 -9 -5 2 4 5 7 7 7 7 6
9 9 11 11 10 12 12 12 13 14 13 13 13 12 12 12 11 10 11 10 5 -7 -6 -2 3 5 6 7 7 7 7 7
7 11 11 11 11 13 13 13 13 13 13 13 13 13 13 12 11 11 11 10 4 -5 -5 -1 3 5 6 7 7 7 7 7
1 11 12 12 12 11 11 10 10 10 10 12 13 13 12 12 12 12 11 9 3 -4 -2 0 3 5 6 7 7 7 7 7
-3 2 10 12 12 11 10 9 9 9 10 10 11 13 12 11 12 12 11 8 2 -4 -2 3 2 5 7 7 7 7 6 4
-8 -2 9 13 10 9 10 8 9 8 10 12 11 12 11 12 11 11 11 10 7 1 -1 1 5 6 5 6 5 4 3 0
7 11 11 9 8 8 8 9 9 11 11 12 12 12 11 11 11 11 11 8 7 3 1 4 5 5 5 4 2 2 2 1
14 14 12 8 8 8 8 9 10 12 11 12 11 11 11 10 11 10 10 10 8 6 2 2 4 5 4 4 2 1 1 1
0 2 9 11 11 10 9 9 8 10 12 12 11 11 10 9 9 11 11 10 9 5 4 3 3 4 5 4 3 -0 -0 -0
-11 -9 -3 1 6 10 11 11 9 11 11 11 10 9 10 10 7 10 10 10 9 7 4 4 5 5 5 4 1 -4 -3 -2
-9 -8 -12 -12 -8 -4 3 10 10 10 10 10 10 10 9 9 9 9 8 10 9 7 7 5 5 5 5 4 2 -3 -3 -3
-9 -8 -9 -12 -11 -8 -6 -4 1 9 9 9 7 6 9 8 9 8 8 7 7 8 6 6 5 5 5 4 2 -3 -4 -3
-7 -6 -5 -6 -4 -4 -4 -3 -4 -4 -0 7 8 7 4 6 8 9 8 8 6 5 6 5 5 5 5 4 2 -1 -1 -3

GFSFLT2_850_dewp_216.txt.gz
Dewpoint
8 9 9 9 10 10 11 11 12 12 11 10 8 6 8 10 10 8 4 2 3 3 1 -3 -7 -2 5 7 8 10 9 9
9 8 9 9 10 11 11 11 11 12 12 11 9 8 8 10 11 9 6 2 3 3 0 -7 -11 -2 6 11 10 9 8 5
10 8 8 9 10 11 11 11 11 11 12 11 10 9 9 10 11 10 7 3 4 4 -1 -11 -14 -4 5 9 8 9 7 1
8 9 8 8 9 10 11 11 11 12 13 12 11 10 10 10 12 11 8 5 4 5 -0 -12 -11 1 7 8 7 8 5 4
4 6 7 7 7 9 10 11 11 12 13 13 12 11 11 11 12 12 11 8 6 6 0 -11 -10 -1 6 8 9 7 5 5
8 8 9 10 9 9 9 10 11 13 13 13 13 12 12 12 12 12 11 10 7 6 3 -7 -12 -4 5 7 9 7 6 5
7 8 9 9 11 10 9 10 10 11 13 14 13 13 13 12 12 12 11 11 9 7 4 -5 -11 -3 5 7 8 7 6 5
7 9 10 11 10 11 11 10 10 11 13 13 14 14 14 13 13 13 9 9 10 8 5 -1 -10 -0 6 9 8 7 6 6
10 11 11 11 10 11 11 11 11 14 11 13 14 14 13 14 13 13 11 9 10 8 2 -5 -7 2 7 9 8 7 7 7
5 10 12 12 10 11 11 11 11 11 11 13 13 13 13 12 12 13 12 11 10 8 2 -5 -2 3 7 8 8 8 7 7
-2 7 11 12 13 13 13 13 13 11 11 10 12 13 11 11 11 11 12 11 11 7 1 -4 -2 6 8 9 8 8 8 7
-1 7 12 13 14 15 14 14 13 11 11 10 10 10 9 10 11 11 10 11 11 5 4 2 1 6 9 9 8 8 8 7
2 12 14 15 15 14 14 14 14 11 10 10 9 10 9 9 10 10 8 11 9 6 6 6 8 8 9 8 7 7 7 7
10 12 12 12 13 14 14 13 13 12 12 10 11 10 12 12 10 11 11 11 7 8 7 5 6 8 8 7 5 5 6 6
-7 -3 2 10 12 12 13 13 12 12 13 12 10 11 11 11 10 11 11 10 10 7 7 5 6 7 8 7 4 4 4 4
-8 -7 -6 -5 -4 1 5 7 7 10 11 11 11 10 11 9 10 10 10 10 10 9 8 6 4 6 6 6 6 6 5 2
-8 -7 -6 -6 -5 -5 -4 -3 -4 -4 -3 0 5 10 9 10 8 10 9 9 9 8 8 7 6 5 6 7 6 5 5 4
-9 -5 -2 -3 -3 -4 -4 -3 -2 -3 -2 -2 -3 -4 6 9 9 8 9 9 8 9 8 7 6 5 7 7 5 5 4 4
-9 -9 -8 -4 -2 -3 -4 -4 -4 -2 -2 -3 -4 -4 -4 1 8 8 8 8 8 8 7 7 7 6 6 6 6 4 4 4
-9 -9 -11 -10 -4 -4 -4 -4 -3 -3 -3 -1 -3 -1 -3 -4 3 3 2 6 8 7 8 7 7 6 6 5 6 4 4 4

GFSFLT2_850_dewp_222.txt.gz
Dewpoint
6 6 8 8 7 7 7 7 6 8 9 10 11 11 7 6 6 6 6 4 1 -0 -1 -0 0 0 1 5 7 8 12 13
7 5 7 9 10 10 10 10 9 8 9 9 10 9 7 6 7 8 7 6 3 1 0 1 2 1 1 4 7 10 12 12
8 8 6 7 9 10 12 12 11 10 9 9 10 9 8 8 9 9 8 7 5 3 2 2 2 2 2 3 6 12 13 11
7 7 8 9 9 10 11 12 12 12 11 10 10 11 13 10 9 9 9 9 8 5 3 3 3 2 5 5 10 13 12 10
13 13 12 13 10 10 10 11 12 13 13 13 12 14 14 13 11 9 10 10 8 6 5 5 3 2 2 8 13 13 11 10
14 12 11 11 12 12 10 11 11 11 13 14 14 14 13 13 13 10 12 11 10 7 6 5 3 4 2 9 12 12 10 9
14 15 10 10 11 13 14 11 11 11 12 14 14 14 14 13 11 10 13 12 11 9 6 5 5 8 10 12 12 12 10 9
13 13 14 10 10 10 11 11 9 10 11 13 15 14 14 12 12 11 12 12 12 11 7 6 6 3 11 12 12 12 11 10
6 9 15 13 11 13 13 13 12 11 12 14 15 14 14 13 13 12 12 12 11 12 9 7 5 2 4 6 10 11 11 10
11 1 7 14 15 14 14 14 15 14 14 14 14 12 14 12 13 13 13 13 12 12 10 9 9 4 8 6 10 10 10 9
11 11 12 13 14 14 15 15 14 15 15 15 15 13 11 11 14 14 13 13 13 12 9 7 9 7 8 8 9 9 9 9
8 9 9 12 13 13 13 13 13 14 14 14 14 13 11 12 14 13 13 13 13 11 11 10 9 8 8 8 9 8 7 8
4 7 5 9 11 11 13 14 13 13 13 14 13 13 14 14 14 13 13 13 12 12 11 11 8 8 8 8 7 8 7 8
-0 1 6 7 4 1 4 11 13 13 13 13 13 13 13 13 13 13 13 13 12 12 11 9 8 8 7 7 7 7 7 7
-3 -4 -2 -1 0 6 0 -1 2 10 11 12 12 12 13 13 12 12 12 13 12 11 11 10 9 8 7 7 6 6 6 7
-3 -3 -4 -5 -8 -4 -1 6 0 -2 -1 5 8 10 10 11 11 11 12 11 11 11 11 11 10 9 8 8 7 6 6 5
-5 -6 -3 -4 -5 -9 -7 -3 3 -1 -2 -2 -2 1 4 7 9 10 11 11 11 11 11 10 10 9 9 8 7 6 6 6
-7 -9 -10 -7 -6 -5 -9 -10 -4 -1 -2 -2 -1 0 1 3 3 5 7 9 9 10 10 10 10 9 9 7 7 6 6 5
-3 -2 -2 -2 -1 1 1 1 -0 -6 -4 1 4 -1 -1 -1 0 2 4 4 6 8 8 8 9 9 9 8 7 7 6 5
-2 -2 -1 -0 -0 0 2 2 2 3 -3 -4 -2 4 5 3 1 3 -1 2 4 6 7 8 8 8 8 8 7 6 6 5

GFSFLT2_850_dewp_225.txt.gz
Dewpoint
10 3 5 7 7 8 7 6 6 8 10 11 12 12 11 11 8 4 4 3 1 0 -0 -1 -1 -0 -0 0 7 7 12 12
8 6 5 6 7 7 7 7 7 8 9 10 11 12 11 11 9 6 5 4 3 2 1 1 0 1 1 2 5 9 10 11
10 15 8 7 9 9 8 8 8 8 9 10 11 12 12 12 10 7 7 6 5 3 2 2 2 2 3 3 6 9 11 10
16 17 17 14 13 14 12 10 10 10 9 9 11 11 14 13 11 8 8 8 7 5 4 4 4 4 4 5 7 11 12 11
13 15 16 16 16 15 15 14 13 12 11 11 13 14 14 14 14 13 10 9 8 7 6 5 5 8 5 7 11 12 11 10
10 14 15 16 16 16 13 14 14 15 15 14 14 14 14 14 14 14 13 12 11 9 8 6 7 10 11 11 11 12 11 9
11 12 14 16 16 16 16 15 14 13 15 15 14 14 14 14 14 14 14 13 12 12 10 9 9 10 10 10 11 11 10 9
11 11 13 15 16 15 15 15 16 15 15 14 15 15 14 14 14 14 14 13 13 12 11 10 11 11 10 10 10 10 10 10
11 11 7 14 16 15 15 15 15 15 15 16 16 15 14 14 14 14 14 13 13 13 12 11 10 10 11 9 8 9 7 9
10 12 13 12 13 14 13 14 14 15 15 15 14 15 15 14 14 14 14 13 13 13 13 11 10 9 10 9 7 9 8 9
8 8 8 7 10 12 13 13 13 14 14 14 14 14 14 14 15 14 14 14 14 13 13 12 11 10 8 9 8 7 8 9
5 8 8 8 10 12 13 13 13 13 12 13 13 14 14 15 14 14 14 14 14 13 13 13 12 8 8 9 8 9 9 9
0 1 3 4 7 8 7 10 12 13 13 14 13 13 14 14 14 14 13 13 13 13 13 12 11 10 8 9 8 9 9 9
-2 -2 -2 -1 1 4 7 6 2 6 10 12 13 13 13 13 13 13 13 13 13 13 12 11 10 11 10 9 8 9 9 9
-2 -1 -1 -1 -0 -1 0 2 6 5 -0 2 10 12 13 12 13 13 13 13 12 12 12 11 11 10 9 9 7 7 8 8
-2 -1 -2 -3 -0 1 2 1 1 3 6 6 -0 2 9 11 11 12 11 12 12 12 12 12 11 10 9 8 8 7 7 7
-2 -1 -2 -1 -0 -0 0 2 2 1 3 5 -2 -2 -1 1 3 8 9 9 10 9 11 11 10 11 9 8 8 7 7 7
-2 -2 -2 -2 -0 0 1 0 2 3 2 3 3 5 -3 -1 1 2 3 6 8 9 9 9 8 9 9 8 8 7 7 7
-4 -3 -3 -3 -1 -0 0 1 1 3 2 3 3 3 3 5 1 -4 -1 -0 2 6 5 8 8 8 9 8 9 8 7 7
-4 -3 -3 -2 -1 -1 -0 0 1 1 1 3 4 4 4 3 5 6 6 3 2 1 4 6 6 8 8 8 9 7 8 7